Skip Page Navigation
NASA JPL Caltech
NASA Logo - Jet Propulsion Laboratory + View the NASA Portal
+ Near-Earth Object (NEO) Program
Search JPL
JPL Home Earth Solar System Stars & Galaxies Technology
JPL Solar System Dynamics
BODIES ORBITS EPHEMERIDES TOOLS PHYSICAL DATA DISCOVERY FAQ SITE MAP
JPL Small-Body Database Browser
Search: [ help ]  
16250 Delbo (2000 HP26)
Classification: Main-belt Asteroid          SPK-ID: 2016250
Ephemeris | Orbit Diagram | Orbital Elements | Physical Parameters | Discovery Circumstances | Close-Approach Data ]

[ show orbit diagram ]
Orbital Elements at Epoch 2457000.5 (2014-Dec-09.0) TDB
Reference: JPL 11 (heliocentric ecliptic J2000)
 Element Value Uncertainty (1-sigma)   Units 
e .1486353267494216 4.944e-08  
a 2.311093110021286 1.5109e-08 AU
q 1.967583030464935 1.1545e-07 AU
i 6.751239366769421 5.7856e-06 deg
node 149.7291385707366 4.5478e-05 deg
peri 230.7572939584044 5.1232e-05 deg
M 279.5549296301335 2.7811e-05 deg
tp 2457287.261950857094
(2015-Sep-21.76195086)
0.00010074 JED
period 1283.289353019496
3.51
1.2584e-05
3.445e-08
d
yr
n .2805290943565794 2.751e-09 deg/d
Q 2.654603189577637 1.7355e-08 AU
  Orbit Determination Parameters
   # obs. used (total)      793  
   data-arc span      7742 days (21.20 yr)  
   first obs. used      1993-05-18  
   last obs. used      2014-07-29  
   planetary ephem.      DE431  
   SB-pert. ephem.      SB431-BIG16  
   condition code      0  
   fit RMS      .52323  
   data source      ORB  
   producer      Otto Matic  
   solution date      2014-Sep-12 14:06:20  

Additional Information
 Earth MOID = .977037 AU 
 T_jup = 3.560 
[ show covariance matrix ]

Ephemeris | Orbit Diagram | Orbital Elements | Physical Parameters | Discovery Circumstances | Close-Approach Data ]

Physical Parameter Table
Parameter Symbol Value Units Sigma Reference Notes
absolute magnitude H 14.8 mag n/a MPO263492  

16250 Delbó           Discovered 2000 Apr. 26 by the Lowell Observatory Near-Earth Object Search at the Anderson Mesa Station.
Marco Delbó (b. 1972) has contributed significantly to knowledge of the physical properties of near-earth asteroids by means of thermal-infrared observations and modeling. He has derived an estimate of the thermal inertia of near-earth asteroids, which is vital for reliable calculations of orbital drift due to the Yarkovsky effect.
NOTE: some special characters may not display properly (any characters within {} are an attempt to place the proper accent above a character)
Reference: 20050721/MPCPages.arcLast Updated: 2005-07-21

[ show close-approach data ]
Alternate Designations
 2000 HP26 = 1996 GM11 
Ephemeris | Orbit Diagram | Orbital Elements | Physical Parameters | Discovery Circumstances | Close-Approach Data ]
ABOUT SSD CREDITS/AWARDS PRIVACY/COPYRIGHT GLOSSARY LINKS
FirstGov 2014-Oct-01 04:03 UT
(server date/time)  
NASA Home Page
Site Manager:   Donald K. Yeomans
Webmaster  Alan B. Chamberlin